Regional Weather Roundup
Issued by NWS

Home | Current Version | Previous Version | Text Only | Print | Product List | Glossary Off
Versions: 1 2 3 4 5 6 7 8 9 10 11 12 13 14 15 16 17 18 19 20 21 22 23 24 25 26 27 28 29 30 31 32 33 34 35 36 37 38 39 40 41 42 43 44 45 46 47 48 49 50

000
ASUS43 KLOT 290908
RWRIL

ILLINOIS REGIONAL WEATHER ROUNDUP
NATIONAL WEATHER SERVICE CHICAGO/ROMEOVILLE IL
400 AM CDT FRI MAY 29 2015

NOTE: "FAIR" INDICATES FEW OR NO CLOUDS BELOW 12,000 FEET WITH NO
SIGNIFICANT WEATHER AND/OR OBSTRUCTIONS TO VISIBILITY.

* THESE STATIONS ARE NOT UNDER NWS QUALITY CONTROL. THEY ALSO MAY NOT
  REPORT WEATHER SUCH AS PRECIPITATION OR FOG.

ILZ001-002-007-009-015-016-024-291000-
NORTHWEST ILLINOIS

CITY           SKY/WX    TMP DP  RH WIND       PRES   REMARKS
MOLINE         CLOUDY    67  61  81 E3        29.97F
STERLING*      CLOUDY    64  61  88 SE3       30.00F
SAVANNA*       CLOUDY    64  59  82 NE3       29.98F
$$

ILZ003-004-008-010-011-017-018-291000-
NORTH CENTRAL ILLINOIS

CITY           SKY/WX    TMP DP  RH WIND       PRES   REMARKS
ROCKFORD       CLOUDY    66  56  70 CALM      30.02F
FREEPORT*      CLOUDY    63  58  82 S5        30.02F
ROCHELLE*      CLOUDY    64  58  82 S6        30.02F
DE KALB*       CLOUDY    64  56  77 S7        30.03F
PERU*          CLOUDY    69  62  80 S8        30.02F
$$

ILZ005-006-012>014-019>023-291000-
NORTHEAST ILLINOIS

CITY           SKY/WX    TMP DP  RH WIND       PRES   REMARKS
CHICAGO-OHARE  CLOUDY    66  59  78 S3        30.03F
CHICAGO-MIDWAY CLOUDY    72  61  68 SE7       30.04F
AURORA         CLOUDY    66  56  70 SE5       30.03F
LANSING*       PTCLDY    66  61  85 S3        30.06F
JOLIET*        MOCLDY    71  64  77 S5        30.04S
WAUKEGAN       MOCLDY    59  55  87 CALM      30.03F
DUPAGE AIRPORT CLOUDY    65  57  75 S5        30.03F
KANKAKEE*      MOCLDY    69  64  83 SE5       30.06F
WHEELING       MOCLDY    66  58  75 S6        30.05F
MORRIS*        CLOUDY    67  60  78 SE5       30.02F
ROMEOVILLE*    MOCLDY    66  60  80 SE6       30.04F
NORTHERLY ISL    N/A     70  60  70 S7          N/A
$$

LMZ740>746-291000-
SOUTHERN LAKE MICHIGAN

STATION/POSITION SKY/WX   TEMP    WIND        PRES    VSBY  WAVE
                          AIR SEA DIR/SP/G                  HT/PER
                          (F)     (DEG/KT/KT) (MB)    (MI)  (FT/S)
SOUTHERN BUOY              48 38  150/ 12/ 14 1018.0F         0
HARRISON CRIB              67     170/ 15/ 16   N/A
BURNHAM HARBOR             70     190/  5/  8   N/A
BURNS HARBOR               68     230/  4/  8 1019.0R
MICHIGAN CITY              70     130/  9/ 14   N/A
MICHIGAN CITY 6N           63 55  220/  2/  2   N/A           0
ST. JOSEPH                 64 58  160/  8/  8   N/A           1
$$

ILZ025>027-034>036-040-047-049-050-058-095>099-291000-
WEST-CENTRAL ILLINOIS

CITY           SKY/WX    TMP DP  RH WIND       PRES   REMARKS
QUINCY         MOCLDY    67  65  93 SE5       29.96F
GALESBURG*     CLOUDY    67  63  86 SE5       29.98F
MACOMB*        CLOUDY    67  65  93 SE5       30.00F
JACKSONVILLE*  CLOUDY    70  66  88 SE8       29.99F
PITTSFIELD*    MOCLDY    68  65  88 SE5       29.99S
$$

ILZ028>032-037-038-041>044-048-051>054-059>061-291000-
CENTRAL ILLINOIS

CITY           SKY/WX    TMP DP  RH WIND       PRES   REMARKS
PONTIAC        MOCLDY    70  65  84 S7        30.04F
BLOOMINGTON    PTCLDY    66  64  93 S6        30.06F
DECATUR        MOCLDY    67  64  90 S5        30.04F
PEORIA         CLOUDY    71  64  78 S8        30.00F
LACON*         CLOUDY    66  63  88 CALM      30.00F FOG
LINCOLN*       PTCLDY    66  64  91 CALM      30.00F
SPRINGFIELD    PTCLDY    69  65  86 S3        30.01F
TAYLORVILLE    PTCLDY    64  63  94 CALM      30.03S
$$

ILZ033-039-045-046-055>057-062-063-291000-
EAST-CENTRAL ILLINOIS

CITY           SKY/WX    TMP DP  RH WIND       PRES   REMARKS
CHAMPAIGN      MOCLDY    69  64  84 SE8       30.05F
DANVILLE*      MOCLDY    67  64  90 CALM      30.05S
RANTOUL*       MOCLDY    69  65  87 SE5       30.06S
PARIS*         CLEAR     67  64  90 SE3       30.08S
$$

ILZ079-100>102-291000-
SOUTHWEST ILLINOIS

CITY           SKY/WX    TMP DP  RH WIND       PRES   REMARKS
ALTON          CLOUDY    69  69 100 S5        30.01S
BELLEVILLE     MOCLDY    68  68  99 S3        29.99F
CAHOKIA*       MOCLDY    70  65  84 CALM      29.99F
SPARTA*        MOCLDY    68  65  89 SE3       30.03S
$$

ILZ064>066-069>071-074>076-080>082-084>086-088>090-092>094-291000-
SOUTH-CENTRAL ILLINOIS

CITY           SKY/WX    TMP DP  RH WIND       PRES   REMARKS
CARBONDALE     CLEAR     65  63  93 CALM      30.02F
CAIRO*         CLEAR     65  65  99 CALM      30.02F
EFFINGHAM*     PTCLDY    67  63  86 CALM      30.06S
MARION         CLEAR     66  66 100 CALM      30.03F
MT. VERNON     CLEAR     63  59  88 CALM      30.04F
CENTRALIA*     CLEAR     64  62  93 CALM      30.03S
SALEM*         CLEAR     70  65  84 CALM      30.03F
METROPOLIS*    CLEAR     67  67 100 CALM      30.02F FOG
$$

ILZ067-068-072-073-078-083-087-091-291000-
SOUTHEAST ILLINOIS

CITY           SKY/WX    TMP DP  RH WIND       PRES   REMARKS
LAWRENCEVILLE  CLEAR     67  64  90 CALM      30.06F
FLORA*         CLEAR     65  64  93 CALM      30.05S
FAIRFIELD*     CLEAR     67  65  93 CALM      30.03F
HARRISBURG*    CLEAR     65  65 100 CALM      30.04F
ROBINSON*      PTCLDY    67  64  90 CALM      30.07S
CARMI*         CLEAR     66  63  88 SE5       30.04S
$$

ABBREVIATIONS USED IN REMARKS
   TC - TEMPERATURE IN CELSIUS
  WCI - WIND CHILL INDEX
   HX - HEAT INDEX
  VSB - VISIBILITY
$$



USA.gov is the U.S. government's official web portal to all federal, state and local government web resources and services.